Location: Unspecified
(17.6330°N, 0.0000°E)
Time: 04:10:19
(UTC+00:00)

S-56A Canister/Altair - Pass Details

Date: 25 June 2019
Orbit: 632 x 2500 km, 38.9° (Epoch: 19 July)

Event Time Altitude Azimuth Distance (km) Brightness Sun altitude
Rises 22:19:10 0° 297° (WNW) 3,069 11.3 -41.8°
Enters shadow 22:20:48 - 292° (WNW) 2,418 10.6 -42.0°
Reaches altitude 10° 22:21:44 10° 288° (WNW) 2,054 - -42.1°
Maximum altitude 22:25:54 37° 220° (SW) 975 - -42.7°
Drops below altitude 10° 22:30:07 10° 152° (SSE) 2,077 - -43.2°
Sets 22:32:44 0° 144° (SE) 3,107 - -43.5°
